Location: ???? ????
(41.4149°N, 22.8816°E)
Time: 11:12:55
(UTC+00:00)

Cosmos 2242 Rocket - Pass Details

Date: 14 July 2020
Orbit: 618 x 652 km, 82.5° (Epoch: 09 August)

Event Time Altitude Azimuth Distance (km) Brightness Sun altitude
Rises 00:05:02 0° 345° (NNW) 2,973 7.8 -23.5°
Reaches altitude 10° 00:07:23 10° 338° (NNW) 2,054 6.8 -23.4°
Enters shadow 00:11:24 42° 279° (W) 920 4.2 -23.1°
